Regional Weather Roundup
Issued by NWS

Home | Current Version | Previous Version | Text Only | Print | Product List | Glossary On
Versions: 1 2 3 4 5 6 7 8 9 10 11 12 13 14 15 16 17 18 19 20 21 22 23 24 25 26 27 28 29 30 31 32 33 34 35 36 37 38 39 40 41 42 43 44 45 46 47 48 49 50
702
ASUS44 KFWD 220903
RWRTX
NORTH TEXAS HOURLY WEATHER ROUNDUP
NATIONAL WEATHER SERVICE FORT WORTH TX
400 AM CDT FRI SEP 22 2017

NOTE: "FAIR" INDICATES FEW OR NO CLOUDS BELOW 12,000 FEET WITH NO
SIGNIFICANT WEATHER AND/OR OBSTRUCTIONS TO VISIBILITY.

TXZ118-119-221000-
DALLAS/FORT WORTH METROPLEX

CITY           SKY/WX    TMP DP  RH WIND       PRES   REMARKS
DFW AIRPORT    PTCLDY    76  71  85 S12       29.92S
DALLAS LOVE    CLOUDY    76  71  85 S13       29.94S
FTW MEACHAM    CLEAR     77  72  84 S9        29.93S
DAL-EXECUTIVE  CLOUDY    76  72  87 S8        29.93F
FTW-ALLIANCE   PTCLDY    75  71  87 S9        29.92F
FTW-NAS-JRB    CLEAR     76  70  82 MISG      29.93S
FTW-SPINKS     CLEAR     74  69  85 S9        29.95S
ARLINGTON      PTCLDY    75  72  90 S8        29.94S
GRAND PRAIRIE  MOCLDY    75  69  81 S8        29.95S
ADDISON        MOCLDY    75  70  84 S9        29.96S
MESQUITE       CLEAR     72  70  95 S5        29.95S
LANCASTER      CLOUDY    74  71  88 S7        29.95F
$$

TXZ091>094-102>105-117-120-121-131>134-221000-
NORTH CENTRAL TEXAS

CITY           SKY/WX    TMP DP  RH WIND       PRES   REMARKS
SHRMAN/DENISON CLEAR     74  71  89 S9        29.95S
GAINESVILLE    CLEAR     73  70  90 S9        29.95S
BOWIE          CLEAR     73  70  89 SE7       29.93R
BRIDGEPORT     CLEAR     74  69  86 S6        29.94R
DECATUR        CLEAR     74  69  84 S13       29.92S
DENTON         PTCLDY    74  71  91 S12       29.93S
MCKINNEY       CLEAR     74  73  97 S10       29.94S
BONHAM         CLEAR     71  69  94 S7        29.95S
ROCKWALL       CLEAR     74  73  96 S7G21     29.95S
TERRELL        CLEAR     74  71  91 S5        29.96R
WAXAHACHIE     CLOUDY    74  72  92 S7        29.96F
CLEBURNE       PTCLDY    73  72  94 S8        29.96S
GRANBURY       CLEAR     76  70  81 SE8       29.94S
$$

TXZ083>090-098>101-113>116-127>130-139>142-154-155-221000-
WESTERN NORTH TEXAS

CITY           SKY/WX    TMP DP  RH WIND       PRES   REMARKS
WICHITA FALLS  CLEAR     74  69  85 S13       29.88S
WF-KICKAPOO    CLEAR     75  70  83 SE10G18   29.91S
VERNON         CLEAR     78  64  63 S10       29.88S
ABILENE        CLEAR     73  67  81 S12       29.92S
ABILENE-DYESS  CLEAR     74  67  77 S16       29.90S
BRECKENRIDGE   CLEAR     76  68  76 S12G18    29.91S
CISCO          CLEAR     73  70  88 SE14      29.95S
EASTLAND       CLEAR     72  68  89 SE10      29.94S
RANGER         CLEAR     72  68  89 S9G16     29.94F
MINERAL WELLS  CLEAR     74  69  85 S10       29.92R
STEPHENVILLE   MOCLDY    72  68  87 S9        29.98R
COMANCHE       CLOUDY    74  69  86 S8G18     29.95S
BROWNWOOD      CLOUDY    75  68  78 SE12      29.95S
COLEMAN        MOCLDY    74  67  80 S9        29.95R
$$

TXZ143>147-156>162-174-175-221000-
CENTRAL TEXAS

CITY           SKY/WX    TMP DP  RH WIND       PRES   REMARKS
WACO           CLOUDY    76  72  87 S13       29.94F
WACO-MCGREGOR  MOCLDY    75  72  90 S10       29.95
HILLSBORO      CLOUDY    76  72  87 S10       29.95S
CORSICANA      CLEAR     73  72  96 S6        29.96S
MEXIA          CLEAR     72  70  96 SE3       29.94F
CAMERON        MOCLDY    72  71  96 CALM      29.94S FOG
TEMPLE         CLOUDY    74  72  93 S10       29.95F
KILLEEN        CLOUDY    75  72  88 S9        29.94F
FORT HOOD      CLOUDY    72  70  92 S8        29.92F
GATESVILLE     MOCLDY    75  70  83 S9        29.96F
HAMILTON       CLOUDY    75  73  91 S17       29.97S
LAMPASAS       CLOUDY    76  73  90 S6        29.95F
$$

TXZ095>097-106>112-122>126-135>138-148>153-164>167-221000-
EAST TEXAS

CITY           SKY/WX    TMP DP  RH WIND       PRES   REMARKS
PARIS          CLEAR     70  69  97 SE5       29.97S
SULPHUR SPRNGS CLEAR     72  72  98 CALM      29.98S
MOUNT PLEASANT CLEAR     68  68 100 CALM      29.98R
GILMER         CLEAR     69  69  99 CALM      29.97R
MINEOLA        CLEAR     70  70 100 CALM      29.96S FOG
TYLER          CLEAR     71  71 100 S5        29.96S
LONGVIEW       CLEAR     71  71 100 CALM      29.96R
MARSHALL       CLEAR     66  64  93 CALM      29.99S
ATHENS         MOCLDY    68  68 100 CALM      29.95S FOG
PALESTINE      CLEAR     74  74 100 SE3       29.97S
JACKSONVILLE   CLEAR     72  72 100 S5        29.99S FOG
HENDERSON      CLEAR     69  68  99 CALM      29.97S FOG
CENTER         CLOUDY    72  70  95 CALM      29.98S
NACOGDOCHES    CLEAR     68  68 100 CALM      29.97S FOG
LUFKIN         PTCLDY    71  70  96 CALM      29.96R
$$

SUPPLEMENTAL OBSERVATIONS (NWS FORT WORTH AREA)

CITY           SKY/WX    TMP DP  RH WIND       PRES   REMARKS
$$

SUPPLEMENTAL OBSERVATIONS (NWS NORMAN AREA)

CITY           SKY/WX    TMP DP  RH WIND       PRES   REMARKS
ODELL            N/A     76  69  76 SE13      29.89S
CROWELL          N/A     76  66  69 S8        29.89S
KNOX CITY        N/A     77  64  63 S14       29.89S
SEYMOUR          N/A     76  67  73 SE10      29.89S
$$

SUPPLEMENTAL OBSERVATIONS (NWS SAN ANGELO AREA)

CITY           SKY/WX    TMP DP  RH WIND       PRES   REMARKS
WEINERT          N/A     76  66  72 SE9       29.90R
HASKELL          N/A     76  65  67 SE10      29.90S
THROCKMORTON     N/A     75  69  81 SE8       29.91S
STAMFORD         N/A     76  69  77 S13       29.91S
CLYDE            N/A     72  67  82 S13       29.95S
$$

SUPPLEMENTAL OBSERVATIONS (NWS SHREVEPORT AREA)

CITY           SKY/WX    TMP DP  RH WIND       PRES   REMARKS
$$

SUPPLEMENTAL OBSERVATIONS ARE A COLLECTION OF AUTOMATED INSTRUMENTS
THAT ARE MAINTAINED BY A VARIETY OF FEDERAL AND STATE AGENCIES.
CERTAIN ELEMENTS...SUCH AS HUMIDITY VALUES AND SUSTAINED WIND
SPEEDS...MAY BE APPROXIMATED.





USA.gov is the U.S. government's official web portal to all federal, state and local government web resources and services.